Location: Unspecified
(0.0000°N, 0.0000°E)
Time: 11:24:57
(UTC+00:00)

A-11 Canister half - Pass Details

Date: 05 August 2021
Orbit: 1515 x 1685 km, 47.2° (Epoch: 27 September)

Event Time Altitude Azimuth Distance (km) Brightness Sun altitude
Rises 10:56:23 0° 196° (SSW) 4,657 11.3 66.0°
Reaches altitude 10° 11:00:15 10° 182° (S) 3,674 10.9 66.6°
Maximum altitude 11:07:17 24° 132° (SE) 2,745 10.7 67.8°
Drops below altitude 10° 11:14:21 10° 82° (E) 3,717 11.4 68.9°
Sets 11:18:14 0° 69° (ENE) 4,723 11.8 69.5°
